Starlink 33732

operational
NORAD ID: 63575 Int'l Des: 2025-076 Owner: SPXS Country: US Constellation: starlink
LEOCIRCULAR

Über Starlink 33732

Beschreibung wird geladen...

Live-Position

3D-Globus wird geladen...

Nächste Überflüge

Höhenverlauf

Altitude vs Time

uPlot chart will show altitude changes over time

Zweizeiliger Elementsatz

1 63575U 25076G 25258.29028426 .00076481 00000-0 27547-2 0 9994
2 63575 42.9984 232.4050 0001479 272.2664 87.8019 15.27644702 25008
Epoch: 15. Sept. 2025 • Age: 17 hours

Aktueller Status

Höhe 490.6 km
Geschwindigkeit 7.62 km/s
Subsatellitenpunkt -32.20°S, 169.06°W
Startdatum 14. Apr. 2025
Alter 0.4 years
Typ internet

Technische Details

Klassifizierung Payload
Masse 575.00 kg
Trockenmasse 530.00 kg
Gesamtmasse 575.00 kg
Länge 0.30 m
Durchmesser 4.10 m
Spannweite 29.00 m
Form Box + pan
Hersteller SPXS
Bus-Typ Starlink V2MO
Phasenstatus In Orbit
Besitzer/Staat SPXS/US

Große Konstellationen

Loading constellations...